Location: Allos
(44.2333°N, 6.6333°E)
Time: 04:22:03
(UTC+00:00)

Cosmos 1933 Rocket - Pass Details

Date: 01 December 2020
Orbit: 605 x 631 km, 82.5° (Epoch: 24 January)

Event Time Altitude Azimuth Distance (km) Brightness Sun altitude
Rises 17:37:03 0° 350° (N) 2,935 7.0 -17.6°
Reaches altitude 10° 17:39:18 10° 350° (N) 2,022 6.2 -18.0°
Maximum altitude 17:43:47 83° 264° (W) 641 3.6 -18.8°
Drops below altitude 10° 17:48:14 10° 176° (S) 1,998 6.3 -19.5°
Sets 17:50:26 0° 175° (S) 2,897 7.1 -19.9°
